Flag for U.S.A. Weather past 2 weeks in Annapolis, Maryland, U.S.A.

Now
47 °F

Clear.


Feels Like: 46 °F
Forecast: 46 / 67 °F
Wind: 3 mph from West

Location: Annapolis - United States Naval Academy

Current Time: Oct 25, 2014 at 7:33:41 AM

Latest Report: Oct 25, 2014 at 6:54 AM


Visibility: 10 mi

Pressure: 29.95 "Hg

Humidity: 74%

Dew point: 39 °F

Location of AnnapolisLocation

Historic Weather in Annapolis — Graph

°F

Annapolis temperature yesterday

Maximum temperature yesterday: 67 °F (at 3:54 PM)
Minimum temperature yesterday: 54 °F (at 6:54 AM)
Average temperature yesterday: 59 °F

Past Weeks' High & Low Weather Summary

 TemperatureHumidityPressure
High76 °F (Oct 14, 1:54 PM)97% (Oct 13, 7:54 PM)30.31 "Hg (Oct 13, 7:54 PM)
Low41 °F (Oct 20, 4:54 AM)33% (Oct 24, 4:54 PM)29.62 "Hg (Oct 18, 4:54 AM)
Average60 °F72%29.96 "Hg
* Reported Oct 10 5:54 AM — Oct 25 5:54 AM, Annapolis, Weather by CustomWeather, © 2014

Note: Actual official high and low records may vary slightly from our data, if they occured in-between our weather recording intervals... More about our weather records

Advertising

Annapolis weather history for previous 24 hours

 ConditionsComfort  
Time TempWeatherWind HumidityBarometerVisibility
5:54 AM
Oct 25
49 °FClear.No wind69%29.94 "Hg10 mi
4:54 AM48 °FClear.3 mph68%29.94 "Hg10 mi
3:54 AM49 °FClear.6 mph66%29.94 "Hg10 mi
2:54 AM51 °FClear.5 mph61%29.94 "Hg10 mi
1:54 AM52 °FClear.6 mph57%29.94 "Hg10 mi
12:54 AM54 °FClear.6 mph53%29.94 "Hg10 mi
11:54 PM
Oct 24
55 °FClear.6 mph51%29.94 "Hg10 mi
10:54 PM58 °FClear.7 mph47%29.93 "Hg10 mi
9:54 PM59 °FClear.8 mph42%29.93 "Hg10 mi
8:54 PM59 °FClear.6 mph41%29.92 "Hg10 mi
7:54 PM59 °FClear.6 mph42%29.91 "Hg10 mi
6:54 PM62 °FSunny.6 mph39%29.90 "Hg10 mi
5:54 PM64 °FSunny.6 mph40%29.88 "Hg10 mi
4:54 PM66 °FSunny.8 mph33%29.87 "Hg10 mi
3:54 PM67 °FSunny.10 mph37%29.87 "Hg10 mi
2:54 PM66 °FSunny.12 mph43%29.88 "Hg10 mi
1:54 PM65 °FSunny.8 mph44%29.89 "Hg10 mi
12:54 PM64 °FSunny.13 mph49%29.90 "Hg10 mi
11:54 AM62 °FSunny.16 mph50%29.94 "Hg10 mi
10:54 AM61 °FSunny.13 mph52%29.94 "Hg10 mi
9:54 AM58 °FSunny.14 mph60%29.94 "Hg10 mi
8:54 AM56 °FSunny.8 mph62%29.96 "Hg10 mi
7:54 AM54 °FClear.6 mph69%29.94 "Hg10 mi
Weather by CustomWeather, © 2014

See weather overviewHow to use our weather pages